Location: Unspecified
(0.0000°N, 0.0000°E)
Time: 17:41:55
(UTC+00:00)

Vanguard 1 Rocket - Pass Details

Date: 13 December 2017
Orbit: 652 x 4225 km, 34.3° (Epoch: 18 July)

Event Time Altitude Azimuth Distance (km) Brightness Sun altitude
Rises 20:16:40 0° 322° (NW) 6,203 11.8 -32.3°
Reaches altitude 10° 20:22:07 10° 337° (NNW) 5,775 11.4 -33.5°
Enters shadow 20:32:13 21° 10° (N) 5,690 11.0 -35.7°
